ROMMA est une association bénévole à but non lucratif. Votre soutien est indispensable : ADHERER à ROMMA ou FAIRE un DON

Lyon - (69, Rhône)

Plaine lyonnaise (169 m)   Longitude: 04° 49' 55" E   Latitude: 45° 43' 50" N Station partenaire n°124
 

Détail journalier du     <<     >>

Température Precipitation Humidité Pression Vent Dir Rafale Dir. rafale Ensol.
Heure (°C) (mm) (%) (hPa) (km/h) (km/h) (min)
01:00 9.609310221N5N0
02:00 9.209410222N6N0
03:00 8.909410222N6N0
04:00 8.5094102205N0
05:00 8.309410222N8N0
06:00 8.209510211---6N0
07:00 7.309410211N5N0
08:00 6.80.39510212N5N0
09:00 7.509610221---5S0
10:00 10.409610222N5N50
11:00 12.808510223N10N60
12:00 15.307510214S11SO60
13:00 17.906310205SE16SO60
14:00 20.105710196SE14SO60
15:00 22.304810189SO21SO60
16:00 23.5040101714S37SO60
17:00 23.4041101715SO42S60
18:00 22.7045101616SO45S60
19:00 21.4053101615S35S0
20:00 20.8053101714N35SO0
21:00 20.1054101710N27N0
22:00 20.3053101713N35N0
23:00 20.1056101713N34N0
minuit 19.1061101711N32N0

Graphique du 11-10-2019

 

Serveur OMMA